Kirksville, MO

12:42 PM CDT on March 25, 2017 (GMT -0500)
Kirksville Regional

Weather History for KIRK - December, 2014

Change the Weather History Date:

Tuesday, December 9, 2014

  Actual Average Record
Temperature  
Mean Temperature 30 °F 30 °F  
Max Temperature 35 °F 39 °F 64 °F (1940)
Min Temperature 24 °F 22 °F -4 °F (1977)
Degree Days  
Heating Degree Days 35 35  
Month to date heating degree days 309 300  
Since 1 July heating degree days 1630 1521  
Cooling Degree Days 0 0  
Month to date cooling degree days 0 0  
Year to date cooling degree days 958 939  
Moisture  
Dew Point 25 °F    
Average Humidity 78    
Maximum Humidity 92    
Minimum Humidity 64    
Precipitation  
Precipitation 0.00 in 0.06 in 1.66 in (2003)
Month to date precipitation 0.23 0.59  
Year to date precipitation 43.86 38.15  
Sea Level Pressure  
Sea Level Pressure 30.41 in    
Wind  
Wind Speed 7 mph (NNE)    
Max Wind Speed 20 mph    
Max Gust Speed 24 mph    
Visibility 9 miles    
Events      
T = Trace of Precipitation, MM = Missing Value Source: NWS Daily Summary

Daily Weather History Graph

Daily Weather History Graph

Search for Another Location

Airport or City:

Trip Planner

Search our weather history database for the weather conditions in past years. The results will help you decide how hot, cold, wet, or windy it might be!

Date:

Astronomy

Dec. 09, 2014 Rise Set
Actual Time 7:20 AM CST 4:44 PM CST
Civil Twilight 6:50 AM CST 5:14 PM CST
Nautical Twilight 6:16 AM CST 5:48 PM CST
Astronomical Twilight 5:43 AM CST 6:21 PM CST
Moon 8:03 PM CST (12/9) 9:33 AM CST (12/9)
Length of Visible Light 10h 24m
Length of Day
9h 24m
Waning Gibbous, 90% of the Moon is Illuminated
Dec 9
Waning Gibbous
Dec 14
Last Quarter
Dec 21
New
Dec 28
First Quarter
Jan 4
Full

Hourly Weather History & Observations

Time (CST) Temp. Windchill Dew Point Humidity Pressure Visibility Wind Dir Wind Speed Gust Speed Precip Events Conditions
12:19 AM 33.1 °F 23.9 °F 23.0 °F 66% 30.25 in 10.0 mi NNW 12.7 mph - N/A   Overcast
12:55 AM 33.1 °F 23.9 °F 23.0 °F 66% 30.29 in 10.0 mi NNW 12.7 mph 18.4 mph N/A   Overcast
1:55 AM 32.0 °F 21.6 °F 23.0 °F 69% 30.31 in 10.0 mi North 15.0 mph - N/A   Overcast
2:33 AM 32.0 °F 23.0 °F 24.1 °F 73% 30.30 in 10.0 mi NNW 11.5 mph - N/A   Overcast
2:55 AM 30.9 °F 22.8 °F 25.0 °F 79% 30.33 in 10.0 mi North 9.2 mph - N/A   Overcast
3:55 AM 30.0 °F 20.0 °F 24.1 °F 79% 30.35 in 10.0 mi NNW 12.7 mph - N/A   Overcast
4:55 AM 28.0 °F 16.1 °F 23.0 °F 81% 30.37 in 10.0 mi North 16.1 mph 21.9 mph N/A   Overcast
5:55 AM 28.0 °F 18.1 °F 23.0 °F 81% 30.40 in 10.0 mi North 11.5 mph - N/A   Overcast
6:55 AM 28.0 °F 20.0 °F 23.0 °F 81% 30.40 in 10.0 mi North 8.1 mph - N/A   Overcast
7:55 AM 28.0 °F 20.0 °F 23.0 °F 81% 30.43 in 10.0 mi NNW 8.1 mph - N/A   Overcast
8:55 AM 28.9 °F 20.4 °F 24.1 °F 82% 30.46 in 10.0 mi NNW 9.2 mph - N/A   Overcast
9:55 AM 30.0 °F 21.7 °F 24.1 °F 79% 30.48 in 10.0 mi North 9.2 mph - N/A   Overcast
10:55 AM 30.0 °F 23.2 °F 24.1 °F 79% 30.49 in 10.0 mi North 6.9 mph - N/A   Overcast
11:55 AM 30.9 °F 24.3 °F 25.0 °F 79% 30.47 in 10.0 mi North 6.9 mph - N/A   Overcast
12:55 PM 30.9 °F - 24.1 °F 76% 30.45 in 10.0 mi Calm Calm - N/A   Overcast
1:55 PM 33.1 °F - 25.0 °F 72% 30.44 in 10.0 mi Calm Calm - N/A   Scattered Clouds
2:55 PM 34.0 °F 29.8 °F 25.0 °F 70% 30.43 in 10.0 mi NE 4.6 mph - N/A   Partly Cloudy
3:43 PM 33.1 °F 27.7 °F 26.1 °F 75% 30.41 in 10.0 mi NNE 5.8 mph - N/A   Mostly Cloudy
3:51 PM 33.8 °F 28.6 °F 26.6 °F 75% 30.41 in 10.0 mi NE 5.8 mph - N/A   Scattered Clouds
3:55 PM 32.0 °F 27.5 °F 26.1 °F 79% 30.45 in 10.0 mi NE 4.6 mph - N/A   Partly Cloudy
4:55 PM 30.0 °F 26.5 °F 25.0 °F 82% 30.45 in 10.0 mi ENE 3.5 mph - N/A   Clear
5:55 PM 26.1 °F - 24.1 °F 92% 30.45 in 9.0 mi Calm Calm - N/A   Clear
6:55 PM 28.0 °F 22.8 °F 25.0 °F 88% 30.45 in 7.0 mi East 4.6 mph - N/A   Clear
7:55 PM 27.0 °F 21.6 °F 24.1 °F 89% 30.44 in 8.0 mi East 4.6 mph - N/A   Clear
8:55 PM 27.0 °F 20.5 °F 25.0 °F 92% 30.42 in 8.0 mi East 5.8 mph - N/A   Clear
9:43 PM 26.1 °F - 25.0 °F 96% 30.39 in 8.0 mi Calm Calm - N/A   Mostly Cloudy
9:55 PM 26.1 °F 20.5 °F 24.1 °F 92% 30.43 in 7.0 mi East 4.6 mph - N/A   Mostly Cloudy
10:13 PM 25.0 °F - 24.1 °F 96% 30.38 in 7.0 mi Calm Calm - N/A   Overcast
10:55 PM 28.0 °F 24.2 °F 27.0 °F 96% 30.43 in 8.0 mi WSW 3.5 mph - N/A   Overcast
11:55 PM 28.9 °F - 28.0 °F 96% 30.43 in 8.0 mi Calm Calm - N/A   Overcast